| time (UTC) | temp F | wind direction | speed MPH | gust MPH | rain 1hr in | rain 24hr in | rain mn in | humidity % | barometer mb |
| 20260508154556 | 45 | 5 | 3.0 | 6.0 | 0.00 | 0.00 | 0.00 | 75 | 1012.4 |
| 20260508153050 | 45 | 360 | 3.0 | 8.0 | 0.00 | 0.00 | 0.00 | 74 | 1012.2 |
| 20260508151551 | 46 | 175 | 1.0 | 3.0 | 0.00 | 0.00 | 0.00 | 71 | 1011.8 |
| 20260508150047 | 45 | 190 | 2.0 | 4.0 | 0.00 | 0.00 | 0.00 | 73 | 1012.0 |
| 20260508144547 | 45 | 203 | 0.0 | 4.0 | 0.00 | 0.00 | 0.00 | 74 | 1012.0 |
| 20260508143058 | 44 | 203 | 0.0 | 4.0 | 0.00 | 0.00 | 0.00 | 75 | 1012.2 |
| 20260508141553 | 44 | 203 | 3.0 | 6.0 | 0.00 | 0.00 | 0.00 | 76 | 1012.1 |
| 20260508140048 | 44 | 297 | 1.0 | 4.0 | 0.00 | 0.00 | 0.00 | 76 | 1012.2 |
| 20260508134544 | 45 | 290 | 2.0 | 4.0 | 0.00 | 0.00 | 0.00 | 77 | 1012.0 |
| 20260508133053 | 45 | 208 | 1.0 | 3.0 | 0.00 | 0.00 | 0.00 | 78 | 1011.9 |
| 20260508131541 | 44 | 208 | 0.0 | 2.0 | 0.00 | 0.00 | 0.00 | 81 | 1011.5 |
| 20260508130045 | 43 | 196 | 0.0 | 1.0 | 0.00 | 0.00 | 0.00 | 82 | 1011.4 |
| 20260508124540 | 42 | 196 | 0.0 | 3.0 | 0.00 | 0.00 | 0.00 | 84 | 1011.3 |
| 20260508123039 | 42 | 202 | 0.0 | 2.0 | 0.00 | 0.00 | 0.00 | 86 | 1011.4 |
| 20260508121556 | 41 | 202 | 2.0 | 4.0 | 0.00 | 0.00 | 0.00 | 87 | 1011.6 |
| 20260508120039 | 41 | 205 | 0.0 | 1.0 | 0.00 | 0.00 | 0.00 | 88 | 1011.6 |
| 20260508114537 | 40 | 205 | 0.0 | 3.0 | 0.00 | 0.00 | 0.00 | 88 | 1011.4 |
| 20260508113036 | 40 | 205 | 0.0 | 1.0 | 0.00 | 0.00 | 0.00 | 88 | 1011.8 |
| 20260508111535 | 39 | 205 | 0.0 | 1.0 | 0.00 | 0.00 | 0.00 | 88 | 1011.7 |
| 20260508110045 | 39 | 205 | 0.0 | 2.0 | 0.00 | 0.00 | 0.00 | 88 | 1011.8 |
| 20260508104534 | 38 | 205 | 0.0 | 2.0 | 0.00 | 0.00 | 0.00 | 88 | 1011.5 |
| 20260508103037 | 38 | 205 | 0.0 | 0.0 | 0.00 | 0.00 | 0.00 | 88 | 1011.7 |
| 20260508101536 | 37 | 205 | 0.0 | 2.0 | 0.00 | 0.00 | 0.00 | 88 | 1011.8 |
| 20260508100034 | 37 | 205 | 0.0 | 2.0 | 0.00 | 0.00 | 0.00 | 87 | 1011.6 |
| 20260508094536 | 38 | 205 | 1.0 | 2.0 | 0.00 | 0.00 | 0.00 | 87 | 1011.8 |
| 20260508093031 | 38 | 205 | 2.0 | 3.0 | 0.00 | 0.00 | 0.00 | 86 | 1011.8 |
| 20260508091528 | 38 | 205 | 0.0 | 2.0 | 0.00 | 0.00 | 0.00 | 86 | 1011.5 |
| 20260508090027 | 38 | 205 | 0.0 | 2.0 | 0.00 | 0.00 | 0.00 | 85 | 1011.4 |
| 20260508084525 | 39 | 205 | 1.0 | 2.0 | 0.00 | 0.00 | 0.00 | 85 | 1011.3 |
| 20260508083104 | 39 | 205 | 0.0 | 2.0 | 0.00 | 0.00 | 0.00 | 84 | 1011.1 |
| 20260508081518 | 40 | 205 | 0.0 | 1.0 | 0.00 | 0.00 | 0.00 | 83 | 1011.1 |
| 20260508080020 | 40 | 205 | 0.0 | 2.0 | 0.00 | 0.00 | 0.00 | 83 | 1011.1 |
| 20260508074514 | 41 | 205 | 0.0 | 3.0 | 0.00 | 0.00 | 0.00 | 83 | 1010.6 |
| 20260508073010 | 42 | 205 | 0.0 | 2.0 | 0.00 | 0.00 | 0.00 | 82 | 1010.9 |
| 20260508071508 | 42 | 205 | 0.0 | 2.0 | 0.00 | 0.00 | 0.00 | 82 | 1010.9 |
| 20260508070009 | 42 | 205 | 1.0 | 3.0 | 0.00 | 0.00 | 0.00 | 81 | 1010.9 |
| 20260508064517 | 42 | 205 | 0.0 | 2.0 | 0.00 | 0.00 | 0.00 | 80 | 1010.8 |
| 20260508063005 | 42 | 205 | 0.0 | 2.0 | 0.00 | 0.00 | 0.00 | 79 | 1010.6 |
| 20260508061502 | 42 | 205 | 0.0 | 3.0 | 0.00 | 0.00 | 0.00 | 77 | 1010.6 |
| 20260508060110 | 43 | 205 | 0.0 | 3.0 | 0.00 | 0.00 | 0.00 | 76 | 1010.4 |
| 20260508054604 | 43 | 205 | 0.0 | 1.0 | 0.00 | 0.00 | 0.00 | 75 | 1010.4 |
| 20260508053102 | 44 | 205 | 0.0 | 2.0 | 0.00 | 0.00 | 0.00 | 74 | 1010.5 |
| 20260508051553 | 44 | 205 | 1.0 | 3.0 | 0.00 | 0.00 | 0.00 | 74 | 1010.6 |
| 20260508050052 | 45 | 207 | 2.0 | 3.0 | 0.00 | 0.00 | 0.00 | 72 | 1010.8 |
| 20260508044549 | 45 | 207 | 0.0 | 2.0 | 0.00 | 0.00 | 0.00 | 72 | 1010.8 |
| 20260508043047 | 45 | 207 | 2.0 | 6.0 | 0.00 | 0.00 | 0.00 | 71 | 1010.8 |
| 20260508041544 | 45 | 161 | 1.0 | 4.0 | 0.00 | 0.00 | 0.00 | 71 | 1010.9 |
| 20260508040041 | 46 | 161 | 1.0 | 5.0 | 0.00 | 0.00 | 0.00 | 72 | 1010.8 |
| 20260508034541 | 46 | 140 | 1.0 | 3.0 | 0.00 | 0.00 | 0.00 | 71 | 1010.8 |
| 20260508033042 | 46 | 140 | 0.0 | 2.0 | 0.00 | 0.00 | 0.00 | 70 | 1010.6 |
| 20260508031541 | 46 | 139 | 1.0 | 3.0 | 0.00 | 0.00 | 0.00 | 69 | 1010.4 |
| 20260508030046 | 46 | 138 | 0.0 | 2.0 | 0.00 | 0.00 | 0.00 | 69 | 1010.3 |
| 20260508024552 | 46 | 138 | 1.0 | 2.0 | 0.00 | 0.00 | 0.00 | 67 | 1010.1 |
| 20260508023039 | 46 | 138 | 0.0 | 2.0 | 0.00 | 0.00 | 0.00 | 65 | 1009.6 |
| 20260508021537 | 46 | 138 | 1.0 | 3.0 | 0.00 | 0.00 | 0.00 | 68 | 1009.7 |
| 20260508020042 | 47 | 13 | 0.0 | 3.0 | 0.00 | 0.00 | 0.00 | 69 | 1009.6 |
| 20260508014537 | 47 | 13 | 1.0 | 2.0 | 0.00 | 0.00 | 0.00 | 68 | 1009.6 |
| 20260508013038 | 48 | 13 | 0.0 | 2.0 | 0.00 | 0.00 | 0.00 | 67 | 1009.2 |
| 20260508011548 | 49 | 13 | 0.0 | 2.0 | 0.00 | 0.00 | 0.00 | 65 | 1009.2 |
| 20260508010036 | 49 | 13 | 1.0 | 2.0 | 0.00 | 0.00 | 0.00 | 64 | 1009.1 |
| 20260508004550 | 50 | 13 | 1.0 | 2.0 | 0.00 | 0.00 | 0.00 | 60 | 1009.1 |
| 20260508003039 | 51 | 13 | 0.0 | 3.0 | 0.00 | 0.00 | 0.00 | 55 | 1009.0 |
| 20260508001539 | 51 | 13 | 1.0 | 3.0 | 0.00 | 0.00 | 0.00 | 53 | 1008.8 |
| 20260508000033 | 51 | 14 | 1.0 | 5.0 | 0.00 | 0.00 | 0.00 | 53 | 1008.7 |
| 20260507234534 | 52 | 22 | 3.0 | 5.0 | 0.00 | 0.00 | 0.00 | 51 | 1008.6 |
| 20260507233033 | 52 | 347 | 2.0 | 5.0 | 0.00 | 0.00 | 0.00 | 51 | 1008.4 |
| 20260507231534 | 53 | 5 | 2.0 | 9.0 | 0.00 | 0.00 | 0.00 | 50 | 1008.4 |
| 20260507230036 | 53 | 5 | 4.0 | 8.0 | 0.00 | 0.00 | 0.00 | 49 | 1008.4 |
| 20260507224535 | 53 | 346 | 2.0 | 10.0 | 0.00 | 0.00 | 0.00 | 50 | 1008.4 |
| 20260507223030 | 53 | 360 | 3.0 | 9.0 | 0.00 | 0.00 | 0.00 | 47 | 1008.3 |
| 20260507221529 | 53 | 350 | 2.0 | 8.0 | 0.00 | 0.00 | 0.00 | 49 | 1008.3 |
| 20260507220031 | 53 | 34 | 4.0 | 10.0 | 0.00 | 0.00 | 0.00 | 48 | 1008.4 |
| 20260507214528 | 54 | 13 | 4.0 | 11.0 | 0.00 | 0.00 | 0.00 | 47 | 1008.3 |
| 20260507213032 | 55 | 9 | 7.0 | 12.0 | 0.00 | 0.00 | 0.00 | 46 | 1008.5 |
| 20260507211527 | 55 | 331 | 1.0 | 6.0 | 0.00 | 0.00 | 0.00 | 46 | 1008.4 |
| 20260507210026 | 55 | 21 | 5.0 | 11.0 | 0.00 | 0.00 | 0.00 | 46 | 1008.4 |
| 20260507204526 | 55 | 273 | 3.0 | 9.0 | 0.00 | 0.00 | 0.00 | 47 | 1008.4 |
| 20260507203025 | 54 | 25 | 6.0 | 12.0 | 0.00 | 0.00 | 0.00 | 46 | 1008.5 |
| 20260507201524 | 53 | 336 | 3.0 | 6.0 | 0.00 | 0.00 | 0.00 | 47 | 1008.6 |
| 20260507200032 | 54 | 24 | 5.0 | 12.0 | 0.00 | 0.00 | 0.00 | 45 | 1008.6 |
| 20260507194522 | 54 | 345 | 5.0 | 14.0 | 0.00 | 0.02 | 0.00 | 47 | 1008.8 |
| 20260507193026 | 54 | 42 | 6.0 | 11.0 | 0.00 | 0.02 | 0.00 | 46 | 1008.9 |
| 20260507191519 | 54 | 326 | 3.0 | 6.0 | 0.00 | 0.02 | 0.00 | 45 | 1009.0 |
| 20260507190032 | 54 | 312 | 2.0 | 13.0 | 0.00 | 0.02 | 0.00 | 45 | 1009.2 |
| 20260507184525 | 56 | 307 | 3.0 | 8.0 | 0.00 | 0.03 | 0.00 | 43 | 1009.1 |
| 20260507183019 | 53 | 28 | 3.0 | 16.0 | 0.00 | 0.03 | 0.00 | 47 | 1009.3 |
| 20260507181513 | 53 | 350 | 3.0 | 9.0 | 0.00 | 0.03 | 0.00 | 46 | 1009.5 |
| 20260507180014 | 54 | 350 | 6.0 | 12.0 | 0.00 | 0.03 | 0.00 | 46 | 1009.8 |
| 20260507174512 | 53 | 349 | 4.0 | 8.0 | 0.00 | 0.03 | 0.00 | 51 | 1009.9 |
| 20260507173014 | 53 | 322 | 3.0 | 10.0 | 0.00 | 0.03 | 0.00 | 50 | 1009.9 |
| 20260507171509 | 53 | 11 | 4.0 | 10.0 | 0.00 | 0.03 | 0.00 | 47 | 1009.9 |
| 20260507170012 | 52 | 321 | 3.0 | 9.0 | 0.00 | 0.03 | 0.00 | 49 | 1010.2 |
| 20260507164517 | 53 | 350 | 7.0 | 11.0 | 0.00 | 0.04 | 0.00 | 47 | 1010.2 |
| 20260507163006 | 54 | 192 | 2.0 | 7.0 | 0.00 | 0.04 | 0.00 | 47 | 1010.4 |
| 20260507161509 | 53 | 219 | 1.0 | 6.0 | 0.00 | 0.04 | 0.00 | 49 | 1010.7 |
| 20260507160003 | 53 | 294 | 2.0 | 10.0 | 0.00 | 0.06 | 0.00 | 50 | 1010.8 |